This is the latest recevied weather packets stored in our database for station/object WX7FGZ-3. If no packets are shown the sender has not sent any weather packets the latest 10 day(s).
| Time | Temp. | Humidity | Pressure | Rain* | Wind** | Luminosity | Snow |
|---|---|---|---|---|---|---|---|
| 1777998946 | 9.44° C | 54% | 1005.6 hPa | 0 mm | - | - | - |
| 1777998645 | 8.89° C | 52% | 1005.7 hPa | 0 mm | - | - | - |
| 1777998345 | 9.44° C | 53% | 1005.8 hPa | 0 mm | - | - | - |
| 1777998045 | 8.89° C | 54% | 1005.7 hPa | 0 mm | - | - | - |
| 1777997744 | 8.89° C | 54% | 1005.5 hPa | 0 mm | - | - | - |
| 1777997444 | 9.44° C | 54% | 1005.6 hPa | 0 mm | - | - | - |
| 1777997144 | 8.89° C | 56% | 1005.6 hPa | 0 mm | - | - | - |
| 1777995642 | 8.89° C | 55% | 1005.2 hPa | 0 mm | - | - | - |
| 1777995342 | 8.89° C | 57% | 1005.2 hPa | 0 mm | - | - | - |
| 1777995102 | 8.89° C | 57% | 1005.2 hPa | 0 mm | - | - | - |
| 1777995091 | 8.89° C | 58% | 1005.1 hPa | 0 mm | - | - | - |
| 1777995086 | 8.89° C | 55% | 1005.3 hPa | 0 mm | - | - | - |
| 1777995042 | 8.89° C | 57% | 1005.2 hPa | 0 mm | - | - | - |
| 1777994741 | 8.89° C | 58% | 1005.1 hPa | 0 mm | - | - | - |
| 1777994441 | 8.89° C | 55% | 1005.3 hPa | 0 mm | - | - | - |
| 1777994141 | 8.89° C | 55% | 1005.3 hPa | 0 mm | - | - | - |
| 1777994009 | 8.89° C | 58% | 1005.2 hPa | 0 mm | - | - | - |
| 1777993841 | 8.89° C | 58% | 1005.2 hPa | 0 mm | - | - | - |
| 1777993540 | 8.33° C | 59% | 1005 hPa | 0 mm | - | - | - |
| 1777993396 | 8.33° C | 59% | 1005.1 hPa | 0 mm | - | - | - |
| 1777993240 | 8.33° C | 59% | 1005.1 hPa | 0 mm | - | - | - |
| 1777992939 | 8.33° C | 60% | 1005.4 hPa | 0 mm | - | - | - |
| 1777992639 | 7.78° C | 61% | 1005.4 hPa | 0 mm | - | - | - |
| 1777992039 | 7.78° C | 61% | 1005.4 hPa | 0 mm | - | - | - |
| 1777991784 | 7.78° C | 60% | 1005.6 hPa | 0 mm | - | - | - |
* Rain latest hour (hover to see other rain measurements)
** Current wind speed in m/s (hover to see current wind gust speed)